This is the latest recevied weather packets stored in our database for station/object PA3GJX-13. If no packets are shown the sender has not sent any weather packets the latest 10 day(s).
| Time | Temp. | Humidity | Pressure | Rain* | Wind** | Luminosity | Snow |
|---|---|---|---|---|---|---|---|
| 1777706142 | 21.11° C | 30% | 1031.6 hPa | - | - | - | - |
| 1777704942 | 21.11° C | 30% | 1031.9 hPa | - | - | - | - |
| 1777703742 | 20.56° C | 30% | 1031.9 hPa | - | - | - | - |
| 1777702542 | 20° C | 30% | 1031.6 hPa | - | - | - | - |
| 1777701342 | 20° C | 31% | 1031.7 hPa | - | - | - | - |
| 1777700142 | 20° C | 31% | 1031.6 hPa | - | - | - | - |
| 1777698942 | 20.56° C | 31% | 1031.6 hPa | - | - | - | - |
| 1777697741 | 20.56° C | 31% | 1031.7 hPa | - | - | - | - |
| 1777696542 | 20.56° C | 31% | 1031.7 hPa | - | - | - | - |
| 1777695342 | 20.56° C | 31% | 1031.8 hPa | - | - | - | - |
| 1777694142 | 21.11° C | 31% | 1031.9 hPa | - | - | - | - |
| 1777691741 | 21.67° C | 30% | 1032.3 hPa | - | - | - | - |
| 1777690541 | 21.67° C | 30% | 1032.3 hPa | - | - | - | - |
| 1777689341 | 22.22° C | 30% | 1032.3 hPa | - | - | - | - |
| 1777688141 | 22.22° C | 29% | 1032.4 hPa | - | - | - | - |
| 1777686941 | 22.22° C | 29% | 1032.6 hPa | - | - | - | - |
| 1777685741 | 22.78° C | 29% | 1032.6 hPa | - | - | - | - |
| 1777684541 | 22.78° C | 29% | 1032.8 hPa | - | - | - | - |
| 1777683341 | 23.33° C | 29% | 1033.1 hPa | - | - | - | - |
| 1777682141 | 23.33° C | 29% | 1033.3 hPa | - | - | - | - |
| 1777680941 | 23.89° C | 28% | 1033.3 hPa | - | - | - | - |
| 1777679741 | 23.89° C | 28% | 1033.5 hPa | - | - | - | - |
| 1777678541 | 24.44° C | 28% | 1033.6 hPa | - | - | - | - |
| 1777677340 | 25° C | 28% | 1033.7 hPa | - | - | - | - |
| 1777676140 | 25° C | 27% | 1033.8 hPa | - | - | - | - |
* Rain since midnight (hover to see other rain measurements)
** Current wind speed in m/s (hover to see current wind gust speed)